[[{"header":{"parameterUnit":"m.s-1","parameterCategory":2,"la1":30.2991,"la2":30.254,"lo1":-89.0895,"lo2":-89.0444,"dy":0.0017,"dx":0.0017,"nx":28,"ny":28,"refTime":"2023-11-09T03:00:00:Z","depth":"0","parameterNumber":2,"parameterNumberName":"U-component_of_CURRENTS"},"data":[0,0,0,0,0,0,0,0,0,0,0,0,0,0,0,0,0,0,0,0,0,0,0,0,0,0,0,0,0,0,0,0,0,0,0,0,0,0,0,0,0,0,0,0,0,0,0,0,0,0,0,0,0,0,0,0,0,0,0.1078,0.1079,0,0.119,0.1191,0.1193,0.1218,0.1217,0.1217,0.1216,0.1317,0.132,0.1324,0,0,0,0,0,0,0,0,0,0,0,0,0,0.0942,0.0944,0.1077,0.1079,0.108,0.119,0.1191,0.1193,0.1218,0.1217,0.1216,0.1215,0.1316,0.132,0.1324,0,0,0,0,0,0,0,0,0,0,0,0,0,0.1023,0.0945,0.1077,0.1105,0.1109,0.1189,0.1191,0.1193,0.1219,0.1217,0.1216,0.1215,0.1314,0.1319,0.1325,0.1383,0,0,0.1341,0.1343,0,0,0,0,0,0,0,0,0.1018,0.1028,0.11,0.1104,0.1108,0.1188,0.1181,0.1256,0.1219,0.1178,0.1216,0.1214,0.1273,0.1282,0.1307,0.1388,0.1392,0.1341,0.1344,0.1347,0.1348,0,0,0,0,0,0,0,0.1013,0.1024,0.1123,0.1101,0.1106,0.1132,0.1142,0.1196,0.1232,0.1181,0.1183,0.1195,0.1275,0.1302,0.131,0.1393,0.1341,0.1346,0.1349,0.1351,0.1593,0.1596,0,0,0,0,0,0,0.0996,0.1019,0.1119,0.1126,0.1058,0.1135,0.1146,0.1164,0.1232,0.1241,0.1196,0.1196,0.1294,0.1303,0.1313,0.1444,0.1347,0.1351,0.1354,0.1589,0.1593,0.1597,0,0,0,0,0,0,0.0993,0.1004,0.1115,0.1074,0.1089,0.1138,0.1159,0.1167,0.1199,0.1243,0.1251,0.1219,0.1293,0.1306,0.1397,0.1446,0.1354,0.1359,0.1585,0.159,0.1595,0.1669,0,0,0,0,0,0,0.0989,0.1003,0.1017,0.1073,0.1091,0.1177,0.1161,0.117,0.1207,0.1208,0.1265,0.1273,0.1293,0.1389,0.1402,0.1451,0.1363,0.1581,0.1588,0.1593,0.1663,0.1676,0.1687,0,0,0,0,0,0.0984,0.1012,0.1017,0.103,0.1107,0.1179,0.1192,0.1222,0.1209,0.1241,0.1291,0.1271,0.1436,0.1397,0.1411,0.1463,0.1578,0.1586,0.1593,0.1657,0.1673,0.1687,0,0,0,0,0,0,0.0968,0.1019,0.1025,0.107,0.1124,0.1183,0.1215,0.1229,0.1293,0.1293,0.1322,0.1336,0.1436,0.1445,0.14,0.1553,0.1501,0.1512,0.1545,0.1561,0.1573,0.1564,0.1367,0,0,0,0,0,0.0969,0.1001,0.1056,0.1094,0.1119,0.1166,0.1198,0.1221,0.1279,0.1304,0.1347,0.1402,0.1479,0.1513,0.1576,0.166,0.1683,0.1702,0.1714,0.1725,0.173,0.1826,0.1847,0.1621,0.1621,0.1621,0,0,0.0975,0.1006,0.1025,0.1093,0.1132,0.1192,0.1183,0.124,0.1298,0.1307,0.1401,0.1451,0.1515,0.1618,0.166,0.1628,0.1805,0.1734,0.1742,0.1742,0.1836,0.1858,0.1877,0.1626,0.1625,0.1624,0,0,0.1012,0.1029,0.1073,0.1118,0.1181,0.1216,0.1232,0.1302,0.1339,0.1436,0.1467,0.1551,0.1647,0.1715,0.1758,0.1877,0.1873,0.189,0.1942,0.2036,0.2055,0.2071,0.2136,0.2158,0.1889,0.189,0.189,0,0.1018,0.1082,0.11,0.1158,0.1206,0.1227,0.1298,0.1345,0.1438,0.149,0.1473,0.1658,0.1699,0.1845,0.1885,0.1905,0.1945,0.1875,0.2051,0.2068,0.2084,0.2145,0.2169,0.1894,0.1894,0.1893,0.1893,0,0.1098,0.1146,0.1178,0.1254,0.1305,0.1371,0.1431,0.1492,0.1527,0.1575,0.1715,0.1788,0.1891,0.1924,0.1941,0.2086,0.2074,0.2058,0.2005,0.211,0.2169,0.2192,0.19,0.1899,0.1898,0.1896,0,0,0.1141,0.1219,0.1233,0.1278,0.1365,0.1417,0.1515,0.1622,0.1686,0.1767,0.1876,0.2005,0.2019,0.207,0.2108,0.2183,0.2328,0.2166,0.2169,0.2215,0.2527,0.2525,0.2549,0.2344,0.2348,0.2351,0.2524,0,0.1212,0.1309,0.1345,0.1453,0.1515,0.1566,0.1651,0.1738,0.1807,0.1908,0.1991,0.2098,0.2082,0.2138,0.2217,0.2309,0.2391,0.2281,0.2429,0.2433,0.2408,0.2577,0.2574,0.2729,0.2546,0.255,0.2552,0,0.1313,0.1355,0.1461,0.1551,0.1584,0.1646,0.178,0.1858,0.1985,0.2038,0.2145,0.2195,0.234,0.2293,0.2496,0.2428,0.2486,0.2536,0.2544,0.253,0.2475,0.2595,0.2776,0.2703,0.2587,0.2584,0.2582,0,0.1357,0.1456,0.1534,0.157,0.1664,0.1729,0.1786,0.1903,0.1968,0.2121,0.2179,0.2337,0.2422,0.2535,0.2625,0.258,0.2825,0.2775,0.283,0.2829,0.2849,0.2842,0.2964,0.2923,0.2922,0.2922,0.2921,0,0.1449,0.1516,0.155,0.1597,0.1678,0.1745,0.1846,0.1929,0.204,0.2123,0.2233,0.2335,0.2487,0.2625,0.2691,0.2846,0.2887,0.2884,0.2899,0.2875,0.2869,0.2819,0.2777,0.2928,0.2927,0.2926,0.2925,0,0.1513,0.1542,0.162,0.1687,0.1704,0.1762,0.1839,0.1904,0.2015,0.2135,0.2187,0.2371,0.257,0.2707,0.2909,0.2937,0.3018,0.3106,0.3053,0.3059,0.3019,0.2982,0.2942,0.2885,0.3218,0.3219,0.322,0,0.1561,0.1604,0.1649,0.1658,0.1689,0.1751,0.1788,0.1887,0.1953,0.215,0.2216,0.2439,0.2583,0.2881,0.3039,0.3214,0.3083,0.3262,0.3178,0.3064,0.3034,0.2806,0.2743,0.3239,0.324,0.3241,0.3242,0,0.1621,0.1628,0.1656,0.1664,0.1692,0.1721,0.1786,0.1822,0.1955,0.2064,0.2227,0.2357,0.2687,0.2887,0.3126,0.3234,0.3132,0.3285,0.3212,0.3118,0.2839,0.2774,0.3041,0.325,0.325,0.3249,0.3248,0.3248,0.1632,0.1642,0.1642,0.1658,0.1667,0.1674,0.1682,0.1763,0.1847,0.1991,0.216,0.2336,0.2704,0.3066,0.3126,0.3295,0.3193,0.3275,0.3259,0.3048,0.2937,0.3205,0.339,0.339,0.339,0.339,0.339,0,0.1615,0.1614,0.1627,0.1613,0.159,0.1619,0.1659,0.1664,0.1729,0.1912,0.2048,0.2403,0.2699,0.297,0.331,0.3272,0.3096,0.3235,0.2944,0.2902,0.3226,0.3172,0.3264,0.3264,0.3265,0.3265,0.3265,0.3265,0.1594,0.1585,0.159,0.1529,0.1512,0.1471,0.1473,0.1507,0.1609,0.1775,0.1954,0.2142,0.2582,0.3057,0.3231,0.3211,0.2972,0.2885,0.2804,0.3079,0.3079,0.3079,0.3017,0.3076,0.3076,0.2374,0.2369,0.2366]},{"header":{"parameterUnit":"m.s-1","parameterCategory":2,"la1":30.2991,"la2":30.254,"lo1":-89.0895,"lo2":-89.0444,"dy":0.0017,"dx":0.0017,"nx":28,"ny":28,"refTime":"2023-11-09T03:00:00:Z","depth":"0","parameterNumber":3,"parameterNumberName":"V-component_of_CURRENTS"},"data":[0,0,0,0,0,0,0,0,0,0,0,0,0,0,0,0,0,0,0,0,0,0,0,0,0,0,0,0,0,0,0,0,0,0,0,0,0,0,0,0,0,0,0,0,0,0,0,0,0,0,0,0,0,0,0,0,0,0,0.0826,0.0826,0,0.0802,0.0802,0.0801,0.0748,0.0747,0.0746,0.0745,0.0659,0.0658,0.0656,0,0,0,0,0,0,0,0,0,0,0,0,0,0.0757,0.0759,0.0826,0.0826,0.0826,0.0802,0.0802,0.0801,0.0748,0.0747,0.0746,0.0744,0.0659,0.0658,0.0656,0,0,0,0,0,0,0,0,0,0,0,0,0,0.0764,0.0759,0.0826,0.0797,0.0795,0.0802,0.0801,0.0801,0.0748,0.0747,0.0745,0.0744,0.066,0.0658,0.0656,0.0672,0,0,0.0649,0.0649,0,0,0,0,0,0,0,0,0.0764,0.0766,0.0802,0.0799,0.0796,0.0778,0.0746,0.0755,0.0748,0.0764,0.0745,0.0743,0.0695,0.069,0.0687,0.0667,0.0664,0.0649,0.0648,0.0647,0.0646,0,0,0,0,0,0,0,0.0763,0.0767,0.0815,0.0802,0.0799,0.0762,0.0762,0.0747,0.0736,0.0763,0.0759,0.0759,0.0693,0.069,0.0685,0.0663,0.0649,0.0647,0.0646,0.0645,0.064,0.0641,0,0,0,0,0,0,0.0775,0.0767,0.0816,0.0814,0.0778,0.0765,0.0765,0.0784,0.0737,0.0729,0.0761,0.0757,0.0694,0.0687,0.0681,0.0719,0.0647,0.0645,0.0644,0.0639,0.064,0.0642,0,0,0,0,0,0,0.0774,0.0781,0.0817,0.079,0.0792,0.0768,0.079,0.0784,0.0786,0.0736,0.0727,0.0769,0.0692,0.0684,0.0684,0.0714,0.0644,0.0642,0.0638,0.064,0.0641,0.078,0,0,0,0,0,0,0.0773,0.0781,0.0804,0.0792,0.0794,0.084,0.0791,0.0785,0.0789,0.0784,0.074,0.073,0.0691,0.0688,0.0682,0.071,0.0641,0.0636,0.0639,0.0641,0.0774,0.0786,0.0796,0,0,0,0,0,0.077,0.081,0.0806,0.0812,0.0826,0.0842,0.0841,0.0816,0.0791,0.0809,0.0776,0.0732,0.0696,0.0688,0.068,0.0709,0.0635,0.0638,0.064,0.0769,0.0784,0.0796,0,0,0,0,0,0,0.0797,0.0808,0.0803,0.0846,0.0852,0.0834,0.0853,0.083,0.082,0.0816,0.0756,0.0746,0.0752,0.0713,0.0705,0.071,0.0654,0.0656,0.0754,0.0768,0.0779,0.0782,0.0639,0,0,0,0,0,0.0815,0.084,0.0848,0.088,0.0895,0.0877,0.0881,0.0867,0.0854,0.0848,0.0811,0.0775,0.0758,0.075,0.0724,0.0739,0.0686,0.0747,0.0758,0.0768,0.0765,0.0707,0.0713,0.065,0.065,0.065,0,0,0.0832,0.0841,0.0856,0.0886,0.0892,0.0917,0.0876,0.09,0.0915,0.0841,0.0851,0.0816,0.0769,0.0781,0.078,0.0754,0.0766,0.0772,0.0781,0.0771,0.071,0.0716,0.0721,0.0652,0.0651,0.0651,0,0,0.087,0.0897,0.0929,0.0946,0.0966,0.0961,0.0973,0.0969,0.097,0.0984,0.0927,0.0915,0.0888,0.0861,0.0844,0.0902,0.0826,0.0891,0.0956,0.0902,0.0907,0.091,0.0886,0.0885,0.0899,0.09,0.09,0,0.0892,0.0935,0.0941,0.0978,0.1001,0.0985,0.1028,0.1031,0.1019,0.1026,0.1004,0.0964,0.0926,0.0932,0.0949,0.093,0.0888,0.0915,0.0918,0.0919,0.092,0.0894,0.0892,0.0907,0.0906,0.0905,0.0904,0,0.0955,0.0988,0.1017,0.1054,0.108,0.1121,0.1132,0.1152,0.1146,0.113,0.1142,0.1099,0.1069,0.1062,0.1025,0.102,0.0988,0.0939,0.0887,0.0935,0.0904,0.09,0.0917,0.0914,0.0912,0.091,0,0,0.1002,0.1052,0.106,0.1093,0.1131,0.1163,0.1207,0.1241,0.1266,0.1253,0.128,0.125,0.1212,0.1188,0.1142,0.11,0.1086,0.1029,0.1023,0.1013,0.0983,0.0978,0.0971,0.1031,0.103,0.103,0.0972,0,0.1051,0.1125,0.114,0.1212,0.1257,0.1274,0.1323,0.1346,0.1346,0.1364,0.1332,0.1332,0.1266,0.1264,0.1213,0.1117,0.1074,0.1107,0.0929,0.0924,0.0919,0.0965,0.0982,0.0932,0.0967,0.0966,0.0965,0,0.1107,0.1147,0.1228,0.1302,0.1332,0.1372,0.1448,0.149,0.1503,0.1504,0.1486,0.1444,0.1412,0.1338,0.1205,0.1227,0.1112,0.103,0.1025,0.0961,0.0909,0.088,0.0921,0.0714,0.0957,0.0958,0.0959,0,0.1132,0.1212,0.1279,0.1306,0.1386,0.1438,0.1491,0.1526,0.1577,0.1583,0.1604,0.1542,0.1534,0.1385,0.1234,0.1209,0.1075,0.1016,0.0905,0.0904,0.0853,0.0849,0.0673,0.0895,0.0895,0.0895,0.0895,0,0.1179,0.1232,0.1299,0.1338,0.1438,0.1488,0.1586,0.1618,0.1674,0.1735,0.1676,0.171,0.1537,0.1449,0.1275,0.1102,0.1105,0.0925,0.0886,0.0907,0.0908,0.0669,0.0554,0.0893,0.0893,0.0894,0.0894,0,0.1193,0.1234,0.1312,0.1409,0.1446,0.1522,0.1654,0.1721,0.1764,0.184,0.1854,0.1836,0.1735,0.1554,0.1336,0.1178,0.0893,0.0918,0.0977,0.0946,0.0646,0.054,0.0398,0.0299,0.0791,0.0791,0.079,0,0.121,0.1247,0.1353,0.1408,0.1456,0.1571,0.1659,0.1749,0.1821,0.1924,0.197,0.1926,0.1922,0.1641,0.1345,0.1066,0.0874,0.0881,0.0823,0.064,0.0492,0.0483,0.0408,0.0822,0.0822,0.0821,0.0821,0,0.1235,0.1267,0.1331,0.1437,0.1531,0.1653,0.1782,0.1858,0.1978,0.2048,0.215,0.2172,0.1952,0.1705,0.1341,0.1145,0.0767,0.0869,0.0647,0.0478,0.0488,0.0372,0.0867,0.082,0.082,0.0821,0.0821,0.0821,0.1248,0.1295,0.1373,0.1479,0.1587,0.1732,0.1838,0.1971,0.2113,0.2261,0.2286,0.2353,0.2031,0.156,0.1269,0.0736,0.0725,0.0533,0.0418,0.0426,0.033,0.0845,0.077,0.077,0.077,0.077,0.077,0,0.1264,0.1324,0.1418,0.155,0.1668,0.1731,0.1919,0.2033,0.2197,0.2355,0.2457,0.2384,0.1908,0.1456,0.0743,0.0348,0.0257,0.0108,0.006,-0.0003,0.0416,0.0413,0.0297,0.0298,0.0298,0.0298,0.0298,0.0298,0.1277,0.1358,0.1412,0.1592,0.1694,0.1867,0.1979,0.2144,0.2292,0.2484,0.2569,0.2653,0.2338,0.1063,0.0201,-0.0035,-0.0354,-0.0393,-0.0569,-0.0341,-0.031,-0.0282,-0.0314,-0.0579,-0.058,-0.0902,-0.0906,-0.091]}],[{"header":{"parameterUnit":"m.s-1","parameterCategory":2,"la1":30.2991,"la2":30.254,"lo1":-89.0895,"lo2":-89.0444,"dy":0.0017,"dx":0.0017,"nx":28,"ny":28,"refTime":"2023-11-09T03:00:00:Z","depth":"2","parameterNumber":2,"parameterNumberName":"U-component_of_CURRENTS"},"data":[0,0,0,0,0,0,0,0,0,0,0,0,0,0,0,0,0,0,0,0,0,0,0,0,0,0,0,0,0,0,0,0,0,0,0,0,0,0,0,0,0,0,0,0,0,0,0,0,0,0,0,0,0,0,0,0,0,0,0.0593,0.0594,0,0.0647,0.0647,0.0648,0.0686,0.0686,0.0687,0.0687,0.074,0.0741,0.0742,0,0,0,0,0,0,0,0,0,0,0,0,0,0.0547,0.0547,0.0593,0.0594,0.0595,0.0647,0.0647,0.0648,0.0686,0.0686,0.0687,0.0687,0.0739,0.0741,0.0742,0,0,0,0,0,0,0,0,0,0,0,0,0,0.0578,0.0547,0.0593,0.0621,0.0625,0.0647,0.0647,0.0648,0.0685,0.0686,0.0687,0.0688,0.0739,0.074,0.0742,0.0736,0,0,0.0746,0.0747,0,0,0,0,0,0,0,0,0.0576,0.0579,0.0616,0.062,0.0623,0.0662,0.0651,0.0678,0.0685,0.066,0.0687,0.0688,0.0715,0.0718,0.0723,0.0738,0.074,0.0746,0.0747,0.0748,0.0748,0,0,0,0,0,0,0,0.0574,0.0578,0.0612,0.0617,0.0621,0.064,0.0645,0.0656,0.0681,0.0662,0.0666,0.0675,0.0716,0.0722,0.0725,0.0741,0.0746,0.0747,0.0748,0.0749,0.0813,0.0814,0,0,0,0,0,0,0.057,0.0575,0.061,0.0614,0.0604,0.064,0.0646,0.0647,0.0681,0.0687,0.0674,0.0677,0.0719,0.0723,0.0727,0.0785,0.0748,0.0749,0.075,0.0812,0.0813,0.0814,0,0,0,0,0,0,0.0568,0.0572,0.0608,0.0598,0.0604,0.064,0.0642,0.0648,0.0661,0.069,0.0697,0.0682,0.072,0.0725,0.0751,0.0785,0.075,0.0751,0.0811,0.0812,0.0813,0.0861,0,0,0,0,0,0,0.0566,0.0571,0.0567,0.0597,0.0605,0.0626,0.0642,0.0648,0.0666,0.067,0.0699,0.0705,0.0721,0.0749,0.0752,0.0786,0.0752,0.081,0.0812,0.0813,0.0858,0.0863,0.0868,0,0,0,0,0,0.0564,0.056,0.0566,0.0571,0.0599,0.0626,0.0631,0.0658,0.0666,0.0672,0.0698,0.0704,0.0762,0.075,0.0754,0.079,0.0809,0.0811,0.0813,0.0856,0.0862,0.0868,0,0,0,0,0,0,0.0538,0.0564,0.0572,0.0575,0.06,0.0633,0.0642,0.0657,0.068,0.0686,0.0709,0.0716,0.0756,0.0757,0.0744,0.0812,0.0789,0.0791,0.082,0.0826,0.0831,0.085,0.0753,0,0,0,0,0,0.0529,0.0533,0.0563,0.0566,0.0578,0.0608,0.062,0.0641,0.0668,0.0679,0.0706,0.0733,0.0764,0.0782,0.0804,0.0832,0.0855,0.0858,0.0863,0.0867,0.0885,0.0938,0.095,0.082,0.082,0.082,0,0,0.052,0.0535,0.0538,0.0561,0.0582,0.0613,0.0617,0.0641,0.0676,0.068,0.0731,0.0748,0.0774,0.0818,0.0836,0.0826,0.0917,0.087,0.0874,0.0889,0.0942,0.0955,0.0966,0.0822,0.0821,0.0821,0,0,0.052,0.0518,0.053,0.0553,0.0587,0.061,0.0617,0.0657,0.0682,0.0724,0.0746,0.0782,0.0821,0.0858,0.0879,0.0919,0.0939,0.0923,0.097,0.1021,0.1033,0.1043,0.1094,0.1109,0.0929,0.0929,0.0929,0,0.0511,0.0534,0.0538,0.0566,0.0594,0.0612,0.0648,0.0673,0.0721,0.0753,0.0747,0.0834,0.0848,0.092,0.0941,0.0934,0.0965,0.0946,0.103,0.1041,0.1051,0.11,0.1115,0.0931,0.0931,0.0931,0.093,0,0.0533,0.0555,0.0565,0.061,0.0633,0.0665,0.0706,0.0737,0.0767,0.0804,0.0874,0.0898,0.0957,0.0964,0.0969,0.1051,0.1051,0.1028,0.1018,0.1067,0.1115,0.113,0.0935,0.0934,0.0933,0.0933,0,0,0.0522,0.0572,0.058,0.0615,0.0664,0.0692,0.0745,0.081,0.0862,0.0901,0.0978,0.1027,0.1044,0.1068,0.1079,0.1121,0.1214,0.1111,0.1113,0.1168,0.1339,0.1346,0.1363,0.121,0.1213,0.1215,0.1347,0,0.0551,0.0607,0.0627,0.0696,0.0735,0.0769,0.0822,0.0878,0.0927,0.1,0.1036,0.1106,0.1083,0.1121,0.1161,0.1205,0.1257,0.1181,0.1279,0.1282,0.1287,0.1381,0.1244,0.1351,0.1362,0.1364,0.1366,0,0.0586,0.062,0.0685,0.0759,0.0779,0.0822,0.0916,0.0967,0.1056,0.1096,0.1163,0.1193,0.1277,0.1237,0.135,0.1306,0.1336,0.1355,0.136,0.1364,0.1318,0.1302,0.1378,0.1392,0.139,0.1388,0.1386,0,0.0602,0.0671,0.0726,0.0751,0.0828,0.0871,0.0919,0.1004,0.1066,0.1167,0.1229,0.1307,0.1375,0.1417,0.1469,0.1421,0.1588,0.1519,0.1554,0.1554,0.1456,0.1444,0.1605,0.1605,0.1605,0.1604,0.1604,0,0.0641,0.0689,0.0739,0.0774,0.0849,0.0896,0.0989,0.1046,0.1144,0.1233,0.1286,0.1377,0.1427,0.1519,0.1528,0.1617,0.1643,0.16,0.1604,0.1468,0.1456,0.1495,0.148,0.1609,0.1608,0.1607,0.1606,0,0.0667,0.0698,0.0764,0.0836,0.0863,0.092,0.1023,0.1091,0.1183,0.1303,0.1344,0.147,0.1596,0.1648,0.1742,0.1716,0.1774,0.1792,0.1637,0.1621,0.1684,0.167,0.1839,0.184,0.1842,0.1843,0.1844,0,0.0691,0.0723,0.0797,0.0834,0.0872,0.0953,0.1011,0.1104,0.118,0.136,0.1425,0.1588,0.169,0.1844,0.1839,0.1885,0.1881,0.1778,0.1654,0.1729,0.1716,0.1699,0.1684,0.154,0.1538,0.1537,0.1536,0,0.0728,0.0748,0.0795,0.0865,0.0926,0.0994,0.1085,0.1146,0.1269,0.1384,0.155,0.1645,0.1783,0.1791,0.1855,0.1837,0.1753,0.1754,0.1906,0.1502,0.1458,0.1441,0.1433,0.1524,0.1525,0.1526,0.1527,0.1527,0.0751,0.0785,0.0838,0.0908,0.0968,0.1038,0.1095,0.1191,0.1317,0.1442,0.1554,0.1642,0.168,0.1711,0.1693,0.1665,0.1753,0.1651,0.1651,0.1652,0.1594,0.1555,0.163,0.1631,0.1633,0.1634,0.1635,0,0.0787,0.0822,0.0879,0.0957,0.1018,0.105,0.1147,0.1179,0.1309,0.1399,0.1504,0.1428,0.1467,0.1508,0.145,0.1455,0.1372,0.1398,0.1278,0.1294,0.1306,0.1224,0.1164,0.1163,0.1161,0.1159,0,0,0.0808,0.0865,0.0892,0.0989,0.1043,0.1114,0.1165,0.1196,0.1251,0.127,0.1297,0.1376,0.1475,0.1299,0.1289,0.1231,0.1238,0.1177,0.1561,0.1437,0.1447,0.147,0.1365,0,0,0,0,0]},{"header":{"parameterUnit":"m.s-1","parameterCategory":2,"la1":30.2991,"la2":30.254,"lo1":-89.0895,"lo2":-89.0444,"dy":0.0017,"dx":0.0017,"nx":28,"ny":28,"refTime":"2023-11-09T03:00:00:Z","depth":"2","parameterNumber":3,"parameterNumberName":"V-component_of_CURRENTS"},"data":[0,0,0,0,0,0,0,0,0,0,0,0,0,0,0,0,0,0,0,0,0,0,0,0,0,0,0,0,0,0,0,0,0,0,0,0,0,0,0,0,0,0,0,0,0,0,0,0,0,0,0,0,0,0,0,0,0,0,-0.0655,-0.0655,0,-0.0629,-0.0629,-0.0628,-0.0626,-0.0626,-0.0626,-0.0627,-0.062,-0.062,-0.0619,0,0,0,0,0,0,0,0,0,0,0,0,0,-0.0636,-0.0637,-0.0655,-0.0655,-0.0654,-0.0629,-0.0629,-0.0628,-0.0625,-0.0626,-0.0626,-0.0627,-0.0621,-0.062,-0.0619,0,0,0,0,0,0,0,0,0,0,0,0,0,-0.063,-0.0637,-0.0655,-0.0651,-0.065,-0.0629,-0.0629,-0.0628,-0.0625,-0.0626,-0.0626,-0.0627,-0.0621,-0.062,-0.0619,-0.0604,0,0,-0.0617,-0.0617,0,0,0,0,0,0,0,0,-0.063,-0.0631,-0.0652,-0.0651,-0.065,-0.0632,-0.062,-0.0621,-0.0625,-0.0634,-0.0627,-0.0627,-0.0626,-0.0625,-0.0617,-0.0603,-0.0603,-0.0617,-0.0616,-0.0616,-0.0616,0,0,0,0,0,0,0,-0.0631,-0.0631,-0.0644,-0.0651,-0.0651,-0.0628,-0.0628,-0.0619,-0.0627,-0.0633,-0.0633,-0.0632,-0.0626,-0.0618,-0.0617,-0.0603,-0.0617,-0.0616,-0.0616,-0.0615,-0.057,-0.0569,0,0,0,0,0,0,-0.0639,-0.0632,-0.0644,-0.0643,-0.0643,-0.0628,-0.0628,-0.0636,-0.0627,-0.0626,-0.0631,-0.0632,-0.0619,-0.0618,-0.0617,-0.0577,-0.0616,-0.0615,-0.0615,-0.0571,-0.057,-0.0569,0,0,0,0,0,0,-0.0639,-0.0641,-0.0645,-0.0637,-0.0636,-0.0628,-0.0637,-0.0636,-0.0619,-0.0625,-0.0625,-0.0615,-0.0619,-0.0618,-0.0596,-0.0577,-0.0615,-0.0614,-0.0572,-0.0571,-0.057,-0.051,0,0,0,0,0,0,-0.0639,-0.0641,-0.0634,-0.0638,-0.0637,-0.0617,-0.0637,-0.0635,-0.0618,-0.0618,-0.0611,-0.0612,-0.062,-0.0597,-0.0595,-0.0577,-0.0614,-0.0573,-0.0571,-0.057,-0.0513,-0.0507,-0.0502,0,0,0,0,0,-0.0638,-0.0625,-0.0635,-0.0635,-0.0634,-0.0616,-0.0612,-0.0608,-0.0617,-0.0597,-0.0596,-0.0611,-0.0587,-0.0595,-0.0593,-0.0575,-0.0573,-0.0572,-0.057,-0.0515,-0.0508,-0.0502,0,0,0,0,0,0,-0.0601,-0.0624,-0.0634,-0.0626,-0.0617,-0.0615,-0.0592,-0.0598,-0.0581,-0.058,-0.0594,-0.0593,-0.057,-0.0579,-0.0587,-0.0559,-0.0586,-0.0584,-0.0545,-0.0538,-0.0533,-0.0529,-0.0613,0,0,0,0,0,-0.0595,-0.0594,-0.0607,-0.0593,-0.059,-0.0591,-0.0579,-0.0579,-0.0573,-0.0566,-0.0562,-0.0563,-0.0562,-0.0555,-0.0552,-0.0528,-0.0554,-0.0519,-0.0513,-0.0509,-0.0505,-0.0532,-0.0529,-0.0564,-0.0564,-0.0564,0,0,-0.0574,-0.0585,-0.0583,-0.0585,-0.0578,-0.0554,-0.0584,-0.056,-0.0538,-0.0567,-0.0526,-0.0539,-0.0552,-0.0529,-0.052,-0.0532,-0.0511,-0.0506,-0.0502,-0.0502,-0.053,-0.0527,-0.0524,-0.0562,-0.0563,-0.0563,0,0,-0.0528,-0.0545,-0.0528,-0.052,-0.0511,-0.0512,-0.0505,-0.0498,-0.0493,-0.0462,-0.0486,-0.0485,-0.0469,-0.0479,-0.0484,-0.0445,-0.0483,-0.0447,-0.0412,-0.0437,-0.0434,-0.0433,-0.0457,-0.0458,-0.0443,-0.0443,-0.0442,0,-0.0497,-0.049,-0.0513,-0.0488,-0.0474,-0.0492,-0.046,-0.0451,-0.0435,-0.0433,-0.0439,-0.0437,-0.0446,-0.0439,-0.0428,-0.0432,-0.0456,-0.0434,-0.043,-0.0429,-0.0428,-0.0453,-0.0455,-0.0439,-0.044,-0.044,-0.044,0,-0.0446,-0.043,-0.0412,-0.0398,-0.0382,-0.0355,-0.0358,-0.0341,-0.0343,-0.0347,-0.0339,-0.0354,-0.036,-0.0364,-0.0381,-0.038,-0.0402,-0.0422,-0.0447,-0.0421,-0.0449,-0.0452,-0.0435,-0.0436,-0.0437,-0.0438,0,0,-0.0406,-0.0383,-0.0375,-0.0356,-0.0337,-0.0319,-0.0285,-0.0273,-0.026,-0.0255,-0.0244,-0.0251,-0.028,-0.0289,-0.0318,-0.0338,-0.035,-0.0372,-0.0375,-0.0396,-0.0408,-0.0414,-0.0418,-0.0373,-0.0373,-0.0373,-0.0429,0,-0.0356,-0.0302,-0.0304,-0.0241,-0.0216,-0.0223,-0.0191,-0.0183,-0.0187,-0.0178,-0.0214,-0.021,-0.0247,-0.0253,-0.0279,-0.0333,-0.0356,-0.0333,-0.0431,-0.0434,-0.0442,-0.0421,-0.0388,-0.0435,-0.0432,-0.0432,-0.0433,0,-0.0313,-0.0283,-0.0221,-0.0182,-0.0172,-0.0135,-0.0111,-0.0086,-0.0092,-0.01,-0.0117,-0.0147,-0.0173,-0.0209,-0.0288,-0.0274,-0.0334,-0.0379,-0.0383,-0.0412,-0.0444,-0.0461,-0.044,-0.0438,-0.0438,-0.0437,-0.0437,0,-0.0293,-0.0229,-0.0183,-0.0165,-0.012,-0.0094,-0.0071,-0.0062,-0.0044,-0.0055,-0.0048,-0.0095,-0.0108,-0.0189,-0.0276,-0.0287,-0.0367,-0.0396,-0.0458,-0.046,-0.0463,-0.0464,-0.0454,-0.0453,-0.0453,-0.0453,-0.0453,0,-0.0258,-0.0219,-0.0166,-0.014,-0.0078,-0.0062,-0.0011,-0.0003,0.0011,0.0037,-0.0008,-0.0001,-0.0104,-0.016,-0.0257,-0.0358,-0.0355,-0.0447,-0.0472,-0.044,-0.0438,-0.0468,-0.0469,-0.0455,-0.0455,-0.0454,-0.0454,0,-0.025,-0.0218,-0.0157,-0.0094,-0.0069,-0.0025,0.0038,0.0067,0.0074,0.0106,0.0108,0.0071,-0.0003,-0.0111,-0.0236,-0.0322,-0.0427,-0.0466,-0.0418,-0.0436,-0.0511,-0.0508,-0.0547,-0.0547,-0.0548,-0.0548,-0.0549,0,-0.0244,-0.0213,-0.0124,-0.0076,-0.0041,0.0024,0.0068,0.0094,0.0124,0.0152,0.0168,0.0122,0.009,-0.0088,-0.024,-0.0402,-0.0431,-0.0481,-0.0497,-0.05,-0.052,-0.0516,-0.0513,-0.0479,-0.0479,-0.0479,-0.0479,0,-0.0225,-0.0192,-0.0138,-0.0042,0.0022,0.0088,0.0151,0.0183,0.0213,0.0249,0.0279,0.0262,0.0107,-0.0034,-0.0245,-0.0356,-0.0454,-0.0483,-0.0497,-0.0457,-0.044,-0.0458,-0.0456,-0.0477,-0.0477,-0.0477,-0.0477,-0.0477,-0.0203,-0.0162,-0.0085,0.0001,0.0079,0.0151,0.0207,0.0269,0.0331,0.0403,0.0369,0.0377,0.0194,-0.005,-0.0241,-0.0432,-0.0449,-0.0515,-0.0514,-0.0514,-0.0492,-0.0476,-0.0517,-0.0517,-0.0518,-0.0518,-0.0518,0,-0.0169,-0.0121,-0.0043,0.0062,0.0141,0.0181,0.0267,0.0335,0.0427,0.0485,0.0529,0.0399,0.0225,0.002,-0.026,-0.0449,-0.0457,-0.0501,-0.047,-0.0471,-0.0473,-0.0447,-0.0461,-0.0461,-0.0462,-0.0462,0,0,-0.0144,-0.0076,-0.0043,0.0092,0.0175,0.0286,0.0342,0.0455,0.0528,0.0611,0.0634,0.0601,0.032,0.0139,-0.0124,-0.0286,-0.033,-0.0315,-0.0343,-0.0278,-0.0276,-0.0469,-0.043,0,0,0,0,0]}],[{"header":{"parameterUnit":"m.s-1","parameterCategory":2,"la1":30.2991,"la2":30.254,"lo1":-89.0895,"lo2":-89.0444,"dy":0.0017,"dx":0.0017,"nx":28,"ny":28,"refTime":"2023-11-09T03:00:00:Z","depth":"4","parameterNumber":2,"parameterNumberName":"U-component_of_CURRENTS"},"data":[0,0,0,0,0,0,0,0,0,0,0,0,0,0,0,0,0,0,0,0,0,0,0,0,0,0,0,0,0,0,0,0,0,0,0,0,0,0,0,0,0,0,0,0,0,0,0,0,0,0,0,0,0,0,0,0,0,0,0.0602,0.0602,0,0.0606,0.0606,0.0606,0.0645,0.0646,0.0647,0.0648,0.0687,0.0687,0.0687,0,0,0,0,0,0,0,0,0,0,0,0,0,0.057,0.0571,0.0602,0.0602,0.0602,0.0606,0.0606,0.0606,0.0645,0.0646,0.0648,0.0649,0.0687,0.0687,0.0687,0,0,0,0,0,0,0,0,0,0,0,0,0,0.058,0.0571,0.0602,0.0623,0.0625,0.0606,0.0606,0.0606,0.0645,0.0646,0.0648,0.0649,0.0687,0.0687,0.0687,0.0656,0,0,0.0687,0.0687,0,0,0,0,0,0,0,0,0.0579,0.0581,0.062,0.0621,0.0623,0.0627,0.0609,0.0625,0.0644,0.0637,0.0648,0.065,0.0669,0.0671,0.0667,0.0658,0.066,0.0687,0.0687,0.0687,0.0687,0,0,0,0,0,0,0,0.0579,0.0581,0.0603,0.062,0.0622,0.0612,0.0615,0.0611,0.0644,0.0637,0.064,0.0641,0.0671,0.0667,0.0668,0.066,0.0687,0.0687,0.0687,0.0687,0.0738,0.0739,0,0,0,0,0,0,0.0581,0.058,0.0603,0.0603,0.0605,0.0611,0.0615,0.0624,0.0644,0.0648,0.064,0.0643,0.0666,0.0668,0.067,0.0739,0.0687,0.0687,0.0688,0.0737,0.0738,0.074,0,0,0,0,0,0,0.058,0.0583,0.0603,0.0592,0.0594,0.0611,0.062,0.0623,0.0646,0.0645,0.0651,0.0663,0.0667,0.067,0.07,0.0737,0.0687,0.0688,0.0735,0.0737,0.0739,0.0811,0,0,0,0,0,0,0.0579,0.0583,0.0592,0.0592,0.0594,0.0616,0.0618,0.0622,0.0643,0.0648,0.0666,0.067,0.0668,0.07,0.07,0.0736,0.0688,0.0734,0.0736,0.0738,0.0807,0.0815,0.0822,0,0,0,0,0,0.0578,0.058,0.0593,0.0595,0.0606,0.0617,0.0618,0.0633,0.0643,0.0659,0.0676,0.0671,0.0716,0.0701,0.0701,0.0738,0.0732,0.0735,0.0738,0.0804,0.0813,0.0822,0,0,0,0,0,0,0.057,0.0584,0.0598,0.0606,0.0624,0.0625,0.0634,0.0644,0.0667,0.0681,0.068,0.0685,0.0721,0.0717,0.0701,0.076,0.0725,0.0728,0.0775,0.0784,0.0792,0.0789,0.0688,0,0,0,0,0,0.0572,0.0582,0.0598,0.0607,0.0619,0.0631,0.0638,0.0655,0.067,0.0683,0.0699,0.0716,0.0726,0.0748,0.0749,0.0782,0.0767,0.0807,0.0815,0.0821,0.082,0.0831,0.084,0.0749,0.0749,0.0749,0,0,0.0578,0.058,0.0591,0.0607,0.062,0.064,0.064,0.0664,0.0691,0.0682,0.0729,0.0735,0.0736,0.0773,0.0791,0.0784,0.0841,0.0825,0.0831,0.0825,0.0835,0.0844,0.0851,0.0751,0.0751,0.0751,0,0,0.0581,0.0594,0.0607,0.062,0.0645,0.0656,0.067,0.0696,0.0724,0.0762,0.0762,0.0793,0.0817,0.083,0.0836,0.0883,0.0869,0.0895,0.0948,0.096,0.0968,0.0974,0.0973,0.0979,0.0915,0.0915,0.0915,0,0.0586,0.0602,0.0614,0.0625,0.064,0.0668,0.0693,0.0717,0.0755,0.0775,0.0792,0.0831,0.0841,0.0874,0.0906,0.0901,0.0903,0.0915,0.097,0.0976,0.0981,0.0979,0.0984,0.0918,0.0918,0.0918,0.0917,0,0.0598,0.0617,0.0624,0.0653,0.0673,0.0697,0.0734,0.0768,0.0806,0.0829,0.0881,0.0901,0.0928,0.0945,0.0947,0.0995,0.0982,0.0966,0.0947,0.0995,0.0989,0.0993,0.0924,0.0923,0.0921,0.0921,0,0,0.0592,0.0629,0.0633,0.0655,0.0691,0.071,0.0756,0.0801,0.0835,0.089,0.0935,0.0976,0.0997,0.1004,0.1018,0.1047,0.1096,0.1042,0.1041,0.104,0.1123,0.1081,0.1081,0.11,0.1101,0.1101,0.1107,0,0.0603,0.063,0.0648,0.0691,0.0713,0.0747,0.0787,0.0832,0.0877,0.093,0.0969,0.1018,0.1018,0.1055,0.108,0.1088,0.111,0.1095,0.1077,0.1076,0.1032,0.1086,0.1105,0.111,0.111,0.1111,0.1112,0,0.0606,0.0624,0.0665,0.0715,0.0731,0.0762,0.0824,0.0869,0.0934,0.0975,0.1025,0.1056,0.1115,0.1111,0.1143,0.114,0.1141,0.1142,0.1141,0.1077,0.1042,0.105,0.1119,0.1118,0.1117,0.1117,0.1117,0,0.0588,0.0635,0.0671,0.0685,0.0745,0.0776,0.0821,0.0882,0.0924,0.1015,0.1052,0.1109,0.1154,0.1167,0.1182,0.1176,0.1205,0.1185,0.1137,0.1133,0.1135,0.1128,0.1198,0.1198,0.1198,0.1198,0.1198,0,0.0576,0.0606,0.0668,0.0684,0.0734,0.0784,0.0848,0.0893,0.0965,0.1012,0.1083,0.1121,0.1176,0.1199,0.1198,0.1184,0.1213,0.1151,0.1137,0.1165,0.1162,0.1138,0.113,0.1198,0.1198,0.1198,0.1198,0,0.0546,0.0588,0.0628,0.0698,0.0725,0.0765,0.0854,0.0893,0.097,0.1033,0.1071,0.1143,0.1187,0.1212,0.1237,0.1198,0.1192,0.1173,0.1206,0.1193,0.1105,0.1101,0.112,0.1119,0.1117,0.1117,0.1116,0,0.0532,0.0551,0.0627,0.0655,0.0689,0.076,0.0803,0.0891,0.0928,0.1031,0.1048,0.1128,0.117,0.1162,0.1197,0.1193,0.1177,0.1157,0.1132,0.1115,0.11,0.1098,0.1096,0.1114,0.1114,0.1113,0.1113,0,0.0505,0.0538,0.057,0.0624,0.0673,0.0727,0.0795,0.081,0.091,0.098,0.1023,0.1059,0.1103,0.1132,0.1146,0.1134,0.1166,0.1145,0.1147,0.1123,0.1108,0.1094,0.1093,0.1109,0.111,0.111,0.111,0,0.0484,0.0496,0.0545,0.0588,0.0645,0.0676,0.0721,0.0773,0.0823,0.0926,0.0938,0.1021,0.1093,0.1101,0.1107,0.111,0.109,0.1045,0.1051,0.1056,0.1035,0.1007,0.0974,0,0,0,0,0,0.0463,0.0474,0.0508,0.0554,0.0604,0.0643,0.0706,0.075,0.0832,0.0842,0.0891,0.0936,0.0978,0.1016,0.1007,0.1071,0.1085,0.1054,0.1032,0.1088,0.1093,0.1076,0,0,0,0,0,0,0.045,0.0477,0.0491,0.0518,0.0543,0.0598,0.0635,0.069,0.0703,0.0787,0.0816,0.0888,0.094,0.0982,0.0994,0.1005,0.0974,0.1107,0.1105,0.1086,0.109,0.1093,0.1077,0,0,0,0,0]},{"header":{"parameterUnit":"m.s-1","parameterCategory":2,"la1":30.2991,"la2":30.254,"lo1":-89.0895,"lo2":-89.0444,"dy":0.0017,"dx":0.0017,"nx":28,"ny":28,"refTime":"2023-11-09T03:00:00:Z","depth":"4","parameterNumber":3,"parameterNumberName":"V-component_of_CURRENTS"},"data":[0,0,0,0,0,0,0,0,0,0,0,0,0,0,0,0,0,0,0,0,0,0,0,0,0,0,0,0,0,0,0,0,0,0,0,0,0,0,0,0,0,0,0,0,0,0,0,0,0,0,0,0,0,0,0,0,0,0,-0.0133,-0.0133,0,-0.0159,-0.0159,-0.0159,-0.0227,-0.0228,-0.0229,-0.0231,-0.0329,-0.033,-0.0332,0,0,0,0,0,0,0,0,0,0,0,0,0,-0.0092,-0.0092,-0.0133,-0.0133,-0.0134,-0.0158,-0.0159,-0.0159,-0.0226,-0.0228,-0.023,-0.0231,-0.0328,-0.033,-0.0332,0,0,0,0,0,0,0,0,0,0,0,0,0,-0.0114,-0.0093,-0.0133,-0.0169,-0.0173,-0.0158,-0.0159,-0.016,-0.0226,-0.0228,-0.023,-0.0232,-0.0328,-0.033,-0.0332,-0.0305,0,0,-0.0338,-0.0339,0,0,0,0,0,0,0,0,-0.0113,-0.0115,-0.0164,-0.0167,-0.017,-0.019,-0.018,-0.0211,-0.0226,-0.0207,-0.0231,-0.0233,-0.0287,-0.0293,-0.0294,-0.0309,-0.0314,-0.0338,-0.034,-0.0341,-0.0341,0,0,0,0,0,0,0,-0.0111,-0.0114,-0.0145,-0.0164,-0.0168,-0.0166,-0.0172,-0.0186,-0.0238,-0.0209,-0.0213,-0.0214,-0.029,-0.0291,-0.0297,-0.0315,-0.0338,-0.034,-0.0341,-0.0342,-0.0364,-0.0363,0,0,0,0,0,0,-0.0106,-0.0113,-0.0144,-0.0145,-0.0144,-0.0166,-0.0172,-0.0183,-0.0236,-0.0245,-0.0212,-0.0217,-0.0287,-0.0294,-0.03,-0.0341,-0.0341,-0.0343,-0.0344,-0.0365,-0.0364,-0.0363,0,0,0,0,0,0,-0.0105,-0.0109,-0.0143,-0.0128,-0.0132,-0.0164,-0.0176,-0.0182,-0.0205,-0.0238,-0.0249,-0.023,-0.0289,-0.0298,-0.0324,-0.0343,-0.0343,-0.0345,-0.0365,-0.0364,-0.0363,-0.0378,0,0,0,0,0,0,-0.0104,-0.0109,-0.0107,-0.0128,-0.0133,-0.0148,-0.0174,-0.0181,-0.02,-0.0207,-0.0256,-0.0266,-0.0291,-0.0321,-0.0326,-0.0346,-0.0347,-0.0366,-0.0365,-0.0364,-0.0379,-0.0378,-0.0377,0,0,0,0,0,-0.0103,-0.0093,-0.0107,-0.0111,-0.0133,-0.0148,-0.0151,-0.018,-0.0199,-0.0209,-0.0238,-0.0266,-0.0317,-0.0322,-0.0328,-0.0349,-0.0367,-0.0365,-0.0364,-0.0379,-0.0378,-0.0377,0,0,0,0,0,0,-0.0081,-0.0099,-0.0116,-0.0115,-0.0137,-0.016,-0.0162,-0.0183,-0.021,-0.0222,-0.0258,-0.0269,-0.0299,-0.0309,-0.0313,-0.0347,-0.0346,-0.0346,-0.0355,-0.0354,-0.0354,-0.0345,-0.0349,0,0,0,0,0,-0.0072,-0.0071,-0.0097,-0.0099,-0.0109,-0.0137,-0.0144,-0.0169,-0.0195,-0.021,-0.0242,-0.0269,-0.029,-0.0312,-0.0328,-0.0346,-0.0343,-0.036,-0.0359,-0.0359,-0.0353,-0.0364,-0.0365,-0.0358,-0.0358,-0.0358,0,0,-0.007,-0.0073,-0.0078,-0.0093,-0.0112,-0.012,-0.0148,-0.0167,-0.0178,-0.0214,-0.024,-0.0268,-0.0291,-0.0315,-0.033,-0.0335,-0.0356,-0.0357,-0.0357,-0.0351,-0.0363,-0.0364,-0.0365,-0.0357,-0.0357,-0.0358,0,0,-0.006,-0.0067,-0.0068,-0.0074,-0.0095,-0.011,-0.0119,-0.0152,-0.0175,-0.0197,-0.0226,-0.0256,-0.0291,-0.0313,-0.0326,-0.0323,-0.0347,-0.0339,-0.0341,-0.0353,-0.0354,-0.0355,-0.0342,-0.0341,-0.0345,-0.0345,-0.0345,0,-0.0059,-0.0055,-0.0071,-0.0067,-0.007,-0.0107,-0.0114,-0.013,-0.0169,-0.0179,-0.0208,-0.025,-0.0284,-0.0304,-0.032,-0.0325,-0.0331,-0.035,-0.0354,-0.0355,-0.0356,-0.0342,-0.0342,-0.0346,-0.0346,-0.0345,-0.0345,0,-0.005,-0.0043,-0.0042,-0.0049,-0.0059,-0.0064,-0.0093,-0.0107,-0.0139,-0.0159,-0.0191,-0.0233,-0.0259,-0.0283,-0.0313,-0.0337,-0.0338,-0.035,-0.0362,-0.0358,-0.0343,-0.0342,-0.0346,-0.0346,-0.0346,-0.0346,0,0,-0.0057,-0.0041,-0.0039,-0.0033,-0.0046,-0.0055,-0.0064,-0.0082,-0.0082,-0.0131,-0.0143,-0.02,-0.0232,-0.0247,-0.0289,-0.0319,-0.0343,-0.0353,-0.0353,-0.0349,-0.0361,-0.0371,-0.037,-0.0374,-0.0374,-0.0374,-0.0345,0,-0.0049,-0.0027,-0.0028,-0.0017,-0.0011,-0.0027,-0.0028,-0.0048,-0.0073,-0.0088,-0.0138,-0.0164,-0.0214,-0.0244,-0.0281,-0.0332,-0.0345,-0.0349,-0.0357,-0.0356,-0.0374,-0.0371,-0.0375,-0.0345,-0.0345,-0.0344,-0.0344,0,-0.0038,-0.002,-0.0006,0.0013,0.001,0.0014,0.0013,0.0001,-0.0018,-0.0039,-0.0073,-0.0114,-0.0168,-0.0212,-0.0276,-0.0285,-0.0321,-0.0354,-0.0354,-0.0357,-0.0365,-0.035,-0.0343,-0.0343,-0.0343,-0.0343,-0.0344,0,-0.0024,-0.0003,0.0014,0.0022,0.0031,0.0037,0.0031,0.002,0.0018,-0.0011,-0.0014,-0.0075,-0.0109,-0.0171,-0.0258,-0.0274,-0.0321,-0.0339,-0.0359,-0.0359,-0.0354,-0.0353,-0.0358,-0.0358,-0.0358,-0.0358,-0.0358,0,0.0001,0.0015,0.003,0.0045,0.0067,0.0055,0.0069,0.0064,0.0057,0.0065,0.0007,0.0001,-0.0108,-0.0156,-0.0232,-0.0296,-0.029,-0.0352,-0.0357,-0.0357,-0.0357,-0.0352,-0.0352,-0.0357,-0.0357,-0.0358,-0.0358,0,0.0016,0.0027,0.0052,0.0071,0.0079,0.0088,0.0101,0.0115,0.0106,0.0116,0.0105,0.0055,-0.0016,-0.0104,-0.0199,-0.0249,-0.0316,-0.033,-0.0304,-0.0308,-0.0345,-0.0345,-0.0342,-0.0342,-0.0342,-0.0342,-0.0342,0,0.0026,0.0041,0.0072,0.0091,0.0104,0.0121,0.0138,0.0136,0.0155,0.0152,0.0164,0.0104,0.0057,-0.0055,-0.0169,-0.028,-0.0303,-0.0315,-0.0354,-0.034,-0.0345,-0.0346,-0.0346,-0.0343,-0.0343,-0.0343,-0.0343,0,0.0043,0.0052,0.0073,0.0118,0.0145,0.0171,0.0198,0.0222,0.0222,0.0219,0.0219,0.0147,0.0077,-0.0044,-0.0133,-0.0219,-0.0306,-0.0317,-0.0318,-0.0355,-0.0341,-0.0346,-0.0346,-0.0343,-0.0343,-0.0343,-0.0343,0,0.0052,0.007,0.0101,0.0138,0.0175,0.0215,0.0226,0.0253,0.0266,0.0272,0.0269,0.0183,0.0126,-0.001,-0.0096,-0.0187,-0.0213,-0.0233,-0.0238,-0.0239,-0.024,-0.021,-0.017,0,0,0,0,0,0.006,0.0082,0.0119,0.0163,0.0202,0.0223,0.0266,0.0275,0.029,0.03,0.0288,0.0219,0.0085,0.0024,-0.0067,-0.0115,-0.024,-0.0224,-0.0267,-0.0347,-0.0346,-0.0369,0,0,0,0,0,0,0.0065,0.0099,0.012,0.0177,0.021,0.0253,0.0282,0.0293,0.0301,0.0303,0.0232,0.0199,0.0063,0.0133,-0.007,-0.0099,-0.0136,-0.0291,-0.0293,-0.0347,-0.0346,-0.0346,-0.0369,0,0,0,0,0]}]]